Location: Drouwen
(52.9559°N, 6.7974°E)
Time: 10:25:52
(UTC+00:00)

Ariane Rocket - Pass Details

Date: 15 May 2026
Orbit: 755 x 763 km, 98.4° (Epoch: 5 June)

Event Time Altitude Azimuth Distance (km) Brightness Sun altitude
Exits shadow 20:59:02 13° 166° (SSE) 2,113 4.7 -11.0°
Maximum altitude 21:03:39 84° 255° (WSW) 774 3.0 -11.4°
Drops below altitude 10° 21:08:45 10° 344° (NNW) 2,310 6.8 -11.9°
Sets 21:11:04 0° 345° (NNW) 3,242 7.8 -12.1°
